Location: Pine Mountain Observatory
(43.7910°N, 120.9377°W)
Time: 20:20:53
(UTC-07:00)

Vanguard 2 Rocket - Visible Passes

Search period start: 22 October 2019 00:00
Search period end: 01 November 2019 00:00
Orbit: 553 x 3327 km, 32.9° (Epoch: 21 October)

Date Brightness Start Highest point End Pass type
(mag) Time Alt. Az. Time Alt. Az. Time Alt. Az.
23 Oct 10.8 06:31:20 10° S 06:40:20 19° SE 06:51:18 10° E visible
24 Oct 10.9 05:38:36 10° SE 05:40:35 10° SE 05:42:39 10° ESE visible
25 Oct 10.5 06:42:32 10° S 06:52:59 26° SE 07:06:47 10° E visible
26 Oct 10.6 05:45:46 10° SSE 05:53:07 17° SE 06:02:15 10° E visible
27 Oct 10.3 06:54:47 10° SSW 07:05:49 34° SE 07:21:22 10° E visible
28 Oct 10.2 05:57:01 10° S 06:05:47 24° SE 06:17:52 10° E visible
29 Oct 10.3 05:00:46 10° SSE 05:06:16 15° SE 05:13:02 10° E visible
29 Oct 10.1 07:07:41 10° SW 07:18:53 41° SSE 07:35:31 10° E visible
30 Oct 10.0 06:09:22 10° SSW 06:18:40 31° SE 06:32:28 10° E visible
31 Oct 10.0 05:11:52 10° S 05:19:00 21° SE 05:28:53 10° E visible
